Flag for Germany Weather past 2 weeks in Kulmbach, Bavaria, Germany

46 °F

Light rain. Mostly cloudy.

Feels Like: 39 °F
Forecast: 48 / 51 °F
Wind: 18 mph from West

Location: Grafenwoehr

Current Time: Nov 30, 2015 at 7:18:47 AM

Latest Report: Nov 30, 2015 at 5:58 AM

Visibility: N/A

Pressure: 30.00 "Hg

Humidity: 87%

Dew point: 43 °F

Location of KulmbachLocation

Historic Weather in Kulmbach — Graph


Kulmbach temperature yesterday

Maximum temperature yesterday: 45 °F (at 11:58 PM)
Minimum temperature yesterday: 33 °F (at 2:58 AM)
Average temperature yesterday: 38 °F

Past Weeks' High & Low Weather Summary

High59 °F (Nov 16, 12:58 PM)100% (Nov 21, 7:04 AM)30.32 "Hg (Nov 21, 7:04 AM)
Low27 °F (Nov 27, 9:58 PM)31% (Nov 16, 1:58 PM)29.43 "Hg (Nov 21, 10:02 AM)
Average40 °F87%29.92 "Hg
* Reported Nov 15 5:04 AM — Nov 30 5:58 AM, Kulmbach, Weather by CustomWeather, © 2015

Note: Actual official high and low records may vary slightly from our data, if they occured in-between our weather recording intervals... More about our weather records


Kulmbach weather history for previous 24 hours

Time TempWeatherWind HumidityBarometerVisibility
5:58 AM
Mon, Nov 30
46 °FLight rain. Mostly cloudy.18 mph87%30.00 "HgN/A
4:58 AM46 °FLight rain. Mostly cloudy.16 mph84%29.98 "HgN/A
3:58 AM47 °FLight rain. Mostly cloudy.13 mph79%29.98 "HgN/A
2:58 AM46 °FLight rain. Mostly cloudy.13 mph82%29.97 "HgN/A
1:59 AM46 °FMostly cloudy.14 mph82%29.94 "HgN/A
12:58 AM46 °FOvercast.16 mph87%29.97 "HgN/A
11:58 PM
Sun, Nov 29
45 °FLight rain. Overcast.17 mph87%29.97 "HgN/A
10:59 PM45 °FLight rain. Mostly cloudy.13 mph87%29.93 "HgN/A
9:58 PM45 °FLight rain. Overcast.15 mph88%29.98 "HgN/A
8:58 PM45 °FOvercast.13 mph87%29.99 "HgN/A
7:58 PM44 °FDrizzle. Overcast.16 mph90%29.99 "HgN/A
6:58 PM44 °FLow clouds.10 mph91%29.99 "HgN/A
5:58 PM42 °FDrizzle. Fog.6 mph93%29.99 "Hg5 mi
4:58 PM41 °FLight rain. Low clouds.5 mph93%30.00 "HgN/A
3:58 PM40 °FLow clouds.8 mph93%30.01 "HgN/A
2:58 PM39 °FMostly cloudy.3 mph92%30.02 "HgN/A
1:58 PM38 °FLight rain. Overcast.5 mph92%30.01 "HgN/A
12:58 PM37 °FLight rain. Low clouds.7 mph93%30.02 "HgN/A
12:03 PM37 °FLight rain. Low clouds.6 mph93%29.97 "HgN/A
11:58 AM37 °FLight rain. Low clouds.6 mph92%30.03 "HgN/A
10:58 AM36 °FLight rain. Low clouds.5 mph93%30.04 "HgN/A
9:58 AM36 °FLight rain. Low clouds.7 mph93%30.04 "HgN/A
8:58 AM34 °FLight rain. Mostly cloudy.7 mph93%30.04 "HgN/A
7:59 AM34 °FLight rain. Mostly cloudy.7 mph93%29.97 "HgN/A
Weather by CustomWeather, © 2015

See weather overviewHow to use our weather pages